SCP
1 1 1 1 1 1 1 1 0 0 0 0 0 0 0 0 0 0 0 0 0 0 0 0 0 0 0 0 0 0 0 0 0 1 1 1 1 1 1 1 1 2 2
1 1 1 1 1 1 1 1 0 0 1 0 0 0 0 0 0 0 0 0 0 0 0 0 0 0 0 0 0 0 0 0 0 0 1 1 0 1 1 1 1 1 2
1 1 1 1 1 1 1 1 1 1 1 1 0 0 0 0 0 0 0 0 0 0 0 0 0 0 0 0 0 0 0 0 0 0 0 0 0 0 1 1 1 1 1
1 1 2 1 1 1 1 1 1 1 1 1 0 0 0 0 0 0 0 0 0 0 0 0 0 0 0 0 0 0 0 0 0 0 0 0 0 0 1 1 1 1 1
1 1 2 1 1 1 1 1 1 1 1 1 1 1 0 0 0 0 0 0 0 0 0 0 0 0 0 0 0 0 0 0 0 0 0 0 0 0 0 1 1 1 1
0 1 1 1 1 1 1 1 1 1 1 1 1 0 0 0 0 0 0 0 0 0 0 0 0 0 0 0 0 0 0 0 0 0 0 0 0 0 0 0 1 1 1
0 0 1 1 2 2 2 1 1 1 1 1 1 0 0 0 0 0 0 1 0 0 0 0 0 0 0 0 0 0 0 0 0 0 0 0 0 0 0 0 0 1 1
0 0 1 1 2 2 2 1 2 2 1 1 0 0 0 0 0 1 1 1 1 1 0 0 0 0 0 0 0 0 0 0 0 0 0 0 0 0 0 0 0 1 1
0 0 1 1 1 2 1 1 1 1 1 1 0 0 0 0 0 1 1 1 1 1 0 0 0 0 0 0 0 0 0 0 0 0 0 0 0 0 0 1 1 0 0
0 0 1 1 1 2 2 1 1 1 1 0 0 0 0 0 0 1 1 1 1 1 1 0 0 0 0 0 0 0 0 0 0 0 0 0 0 0 0 1 0 0 0
0 0 1 1 2 2 2 1 1 1 0 0 0 0 0 0 0 0 1 1 1 1 1 1 0 0 0 0 0 0 0 0 0 0 0 0 0 0 0 0 0 0 0
0 0 1 1 2 2 2 1 1 1 0 0 0 0 0 0 0 0 0 0 1 1 1 1 0 0 0 0 0 0 0 0 0 0 0 0 0 0 0 0 0 0 0
0 0 1 1 2 2 2 1 1 0 0 0 0 0 0 0 0 0 0 0 0 0 0 0 0 0 0 0 0 0 0 0 0 0 0 0 0 0 0 0 0 0 0
0 1 1 1 2 2 2 1 1 0 0 0 0 0 0 0 0 0 0 0 0 0 0 0 0 0 0 0 0 0 0 0 0 0 0 0 0 0 0 0 0 0 0
0 1 1 1 1 2 2 1 1 0 0 0 0 0 0 0 0 0 0 0 0 0 0 0 0 0 0 0 0 0 0 0 0 0 0 0 0 0 0 0 0 0 0
0 0 1 1 1 1 1 1 0 0 0 0 0 0 0 0 0 0 0 0 0 0 0 0 0 0 0 0 0 0 0 0 0 0 0 0 0 0 0 0 0 0 0
0 0 0 1 1 1 1 1 0 0 0 0 0 0 0 0 0 0 0 0 0 0 0 0 0 0 0 0 0 0 0 0 0 0 0 0 0 0 0 0 0 0 0
0 0 0 0 1 1 1 0 0 0 0 0 0 0 0 0 0 0 0 0 0 0 0 0 0 0 0 0 0 0 0 0 0 0 0 0 0 0 0 0 0 0 0
0 0 0 0 0 1 1 0 0 0 0 0 0 0 0 0 0 0 0 0 0 0 0 0 0 0 0 0 0 0 0 0 0 0 0 0 0 0 0 0 0 0 0
0 0 0 0 0 0 0 0 0 0 0 0 0 0 0 0 0 0 0 0 1 1 1 0 0 0 0 0 0 0 0 0 0 0 0 0 0 0 0 0 0 0 0
0 0 0 0 0 0 0 0 0 0 0 0 0 0 0 0 0 0 0 0 1 1 1 1 0 0 0 0 0 0 0 0 0 0 0 0 0 0 0 1 1 1 1
0 0 0 0 0 0 0 0 0 0 0 0 0 0 0 0 0 0 0 0 0 1 1 1 1 0 0 0 0 0 0 0 0 0 0 0 0 0 1 1 1 1 1
0 0 0 0 0 0 0 0 0 0 0 0 0 0 0 0 0 0 0 0 0 0 1 0 0 0 0 0 0 0 0 0 0 0 0 0 0 0 0 1 1 1 1
0 0 0 0 0 0 0 0 0 0 0 0 0 0 0 0 0 0 0 0 0 0 0 0 0 0 0 0 0 0 0 0 0 0 0 0 0 0 0 1 1 2 2
0 0 0 0 0 0 0 0 0 0 0 0 0 0 0 0 0 0 0 0 0 0 0 0 0 0 0 0 0 0 0 0 0 0 0 0 0 0 0 1 1 2 2
0 0 0 0 0 0 0 0 0 0 0 0 0 0 0 0 0 0 0 0 0 0 0 0 0 0 0 0 0 0 0 0 0 0 0 0 0 0 0 1 1 2 2
Wind_Speed
8 7 5 4 4 3 4 5 5 4 3 2 1 1 1 1 1 1 2 1 2 3 3 3 3 2 2 3 4 3 4 3 3 3 3 3 2 1 2 2 1 1 1
8 7 5 4 3 3 3 4 4 4 4 2 1 1 0 1 0 0 0 1 2 2 3 3 3 3 2 2 3 3 2 3 3 2 2 2 3 3 2 1 1 1 1
7 7 5 5 4 3 3 2 3 4 4 3 1 1 0 1 1 1 0 1 1 1 1 3 3 3 2 1 2 2 2 2 3 2 0 0 2 2 2 1 1 1 1
6 5 5 4 4 3 2 2 3 3 4 3 2 0 1 1 1 1 0 1 2 1 1 2 3 3 2 2 2 2 2 2 2 3 2 2 1 0 2 2 1 1 1
6 6 5 4 4 4 3 2 3 3 3 2 2 1 2 2 1 1 1 2 1 2 2 2 3 3 2 2 2 2 2 2 2 2 2 2 2 1 1 2 2 1 1
7 6 6 4 4 4 3 2 2 2 2 1 1 2 2 2 3 3 2 2 2 2 2 2 2 3 2 2 2 2 2 2 2 2 1 1 1 1 1 1 1 1 1
6 6 6 4 4 3 2 2 2 1 1 1 3 3 2 3 3 3 2 2 2 1 1 1 2 2 2 3 2 2 3 2 2 2 2 2 2 2 1 1 1 1 1
6 6 5 4 4 3 2 1 1 1 1 2 3 2 2 2 2 2 2 3 2 1 1 1 3 3 3 3 2 2 3 2 2 3 2 2 2 1 1 1 1 0 1
6 6 5 4 4 3 2 2 2 1 1 2 3 2 3 2 2 3 3 2 2 2 2 2 3 3 3 3 2 2 3 2 2 2 2 2 2 2 1 1 2 2 1
6 6 5 4 3 3 2 2 2 2 2 2 3 3 2 2 3 3 4 4 4 3 3 4 3 3 3 2 2 2 3 3 3 2 3 3 2 2 1 1 2 2 2
5 5 4 4 4 3 3 3 3 3 3 3 4 3 2 2 3 3 3 4 4 5 4 4 4 4 3 2 2 2 3 3 3 3 3 3 3 2 2 2 2 2 2
5 5 5 4 4 4 4 3 3 3 3 3 4 4 3 3 3 3 4 4 5 5 5 4 4 4 3 3 3 3 3 3 4 4 3 3 2 3 2 2 3 2 2
5 5 4 4 4 4 4 4 3 3 3 3 4 4 4 4 4 4 4 4 5 5 6 5 4 4 3 3 3 3 3 3 4 3 3 2 2 2 2 2 2 2 2
4 4 3 3 3 3 3 4 4 3 3 3 3 4 5 5 5 5 4 4 5 5 6 6 5 4 4 3 3 3 3 3 4 3 3 2 2 2 2 2 2 2 2
4 4 3 3 3 3 3 4 4 4 4 3 3 4 5 5 5 5 5 5 4 6 5 6 6 5 4 3 2 3 4 3 4 3 2 2 2 2 2 1 1 1 2
3 3 3 3 3 3 3 3 3 3 3 3 4 4 5 5 5 5 6 6 6 5 5 5 7 6 5 5 4 3 4 4 4 4 3 4 4 5 5 4 3 2 3
3 3 3 3 3 3 3 3 4 4 4 4 4 4 5 5 5 6 6 6 6 5 5 6 6 6 6 7 6 5 4 5 5 4 3 3 3 5 4 5 5 3 3
2 2 3 3 3 4 4 3 4 4 4 4 5 5 5 5 5 5 6 6 6 6 5 6 6 6 7 8 8 7 5 5 5 5 4 4 3 3 4 4 4 4 3
2 2 3 3 4 4 4 4 4 4 4 4 5 5 5 6 5 6 6 5 5 6 6 6 6 7 7 9 9 7 4 4 6 6 5 4 4 5 6 4 4 4 4
2 2 2 3 4 4 4 4 4 4 4 4 5 6 6 6 6 6 6 5 5 6 6 7 7 7 7 8 9 7 3 4 4 5 5 6 5 5 6 5 5 5 4
2 1 2 2 3 4 4 4 4 5 5 4 5 6 6 6 6 5 5 6 6 6 6 7 6 6 8 8 8 7 3 4 4 4 4 3 5 6 6 5 4 5 5
1 1 1 2 2 3 3 4 4 4 5 5 5 6 6 6 7 5 5 5 6 6 6 7 6 5 6 6 7 9 9 6 4 4 3 3 5 5 7 5 6 7 5
0 1 1 2 2 2 3 4 4 4 5 5 5 6 6 5 5 5 5 5 5 5 5 5 6 6 5 6 8 7 8 9 5 4 5 5 5 5 5 7 8 6 4
0 1 2 2 3 3 3 3 4 4 6 6 5 5 5 5 5 4 4 4 4 4 5 5 6 6 5 4 4 4 4 6 5 4 5 6 6 6 6 6 6 5 5
1 1 2 2 3 4 4 3 4 5 5 6 6 5 5 5 5 5 5 5 5 5 6 5 6 6 7 7 9 7 6 5 5 5 3 3 3 4 4 4 5 5 5
1 2 2 3 4 5 5 4 4 4 5 6 6 4 4 4 4 5 6 8 9 11 12 11 10 9 11 13 12 12 12 11 10 7 5 5 5 5 6 6 6 6 6
Wind_Direction
123 113 118 121 130 128 124 130 137 137 118 87 45 33 37 333 7 35 72 5 340 354 336 328 334 348 337 326 322 325 325 313 305 313 313 299 275 234 241 242 216 188 190
121 118 122 119 128 120 112 129 131 121 116 124 163 185 143 283 251 344 89 16 353 347 337 342 332 324 315 320 316 321 317 309 318 315 320 325 329 315 250 220 198 184 172
104 119 119 118 106 96 109 110 113 131 135 146 134 1 350 294 307 258 173 228 246 271 314 319 314 310 312 296 297 308 306 299 309 313 311 318 287 307 311 268 182 166 152
75 87 93 101 114 112 100 104 114 113 122 135 137 298 286 286 284 302 215 262 236 213 238 286 295 299 302 306 301 322 316 308 300 309 294 265 261 280 316 324 345 153 134
77 78 78 74 74 76 69 48 81 84 91 95 126 226 284 300 315 319 293 275 259 228 222 248 280 287 290 298 299 321 308 289 274 278 294 304 304 265 214 282 315 353 60
71 72 74 72 67 63 55 34 47 67 74 49 253 228 253 273 283 285 285 285 270 246 231 236 270 286 299 312 307 287 279 269 273 275 268 261 269 276 255 249 256 251 271
69 67 64 66 70 72 62 36 40 57 102 243 262 254 242 261 269 272 276 270 268 264 251 275 280 289 297 294 289 285 277 262 252 248 246 253 249 235 234 225 258 248 260
73 69 66 64 67 65 63 34 30 22 332 275 280 281 265 244 253 262 277 275 265 259 252 255 258 262 271 281 280 277 277 274 263 255 245 245 258 247 222 194 180 266 279
72 69 63 63 68 60 48 34 33 12 340 312 300 307 325 334 324 306 290 283 275 269 269 264 260 257 254 258 269 268 282 290 270 268 267 247 252 252 238 208 181 167 195
67 65 58 53 54 49 39 35 21 1 349 335 332 339 338 334 325 317 310 309 307 297 273 264 266 268 257 251 250 264 276 277 265 240 246 247 247 250 246 237 223 189 179
71 70 58 48 46 45 39 30 13 357 2 351 339 338 337 330 321 310 305 299 286 280 272 261 260 261 258 254 241 244 259 271 281 269 239 233 229 220 232 231 227 213 183
74 68 59 49 41 33 25 22 14 12 6 352 343 345 346 331 312 309 308 305 304 302 295 282 269 265 259 252 244 249 255 252 265 273 267 251 236 218 225 220 225 217 198
74 69 61 52 37 31 21 17 17 12 5 359 350 342 332 328 321 315 311 314 314 313 308 301 289 283 275 260 243 237 251 249 251 257 260 251 240 239 229 216 221 209 198
71 62 55 53 35 27 17 16 10 9 8 7 352 339 332 331 321 317 317 316 319 316 318 311 301 293 284 277 265 262 258 258 258 250 241 243 219 220 233 225 221 208 191
74 63 49 44 26 26 18 17 3 359 0 4 353 339 331 334 335 334 324 315 309 308 307 314 307 301 297 291 296 295 283 272 270 259 234 213 187 180 200 203 210 214 198
63 50 41 34 15 13 11 11 354 348 349 355 350 341 339 338 334 328 327 325 315 308 307 309 308 302 299 300 287 282 287 281 271 261 247 211 197 194 189 177 172 177 198
64 40 28 23 3 5 11 4 347 342 348 359 353 345 338 333 328 327 324 314 307 302 299 294 295 291 284 281 269 269 268 273 266 258 255 248 208 188 185 195 199 201 214
71 39 18 8 359 8 6 355 349 353 360 2 349 340 334 332 322 315 310 305 308 306 299 293 288 286 282 278 261 257 258 269 266 258 244 240 221 201 191 195 198 198 205
71 41 13 2 359 3 356 347 346 354 1 354 339 336 333 326 315 309 303 302 305 304 297 293 288 286 281 271 261 252 254 262 266 261 251 235 220 214 201 199 201 195 200
62 38 7 357 358 354 345 337 341 352 352 344 332 328 319 315 303 301 302 302 299 296 300 298 292 289 286 276 263 251 251 259 267 266 253 228 220 216 213 201 200 200 197
71 32 7 360 350 340 335 337 345 342 336 329 320 314 311 308 300 301 305 305 303 304 303 298 294 295 293 287 274 253 254 262 272 273 266 242 212 211 215 212 208 200 190
78 12 355 345 330 327 333 334 333 330 324 316 309 306 306 308 316 309 304 304 305 304 303 302 304 302 300 290 274 262 252 262 264 277 282 267 223 217 218 220 220 201 188
115 346 333 314 310 325 336 320 322 322 313 306 304 301 304 306 312 312 312 310 309 305 305 307 308 308 305 304 296 283 270 264 263 273 286 287 258 241 227 228 224 208 194
210 303 306 308 316 323 309 306 316 317 314 308 305 307 312 315 320 314 302 302 303 303 306 309 307 306 302 303 308 309 299 286 273 271 279 273 254 246 234 229 224 213 201
250 275 296 302 304 305 299 305 311 314 312 312 311 310 311 309 308 305 295 295 285 282 287 286 290 294 294 288 291 292 289 283 273 280 266 261 257 252 241 223 217 208 198
273 285 293 296 300 304 306 305 305 309 313 314 311 307 307 304 302 302 301 293 286 287 284 276 279 283 279 285 285 286 283 278 273 272 254 243 234 237 236 224 217 214 205